Date String (YYYY-MM-DD hh:mm:ss) UTC,Instrument flags,Ambient pressure (hPa),Sample flow (lpm),Bypass flow (lpm),Sample temperature (°C),Ambient temperature (°C),ASC tube jacket temperature (°C),LED temperature (°C),Box temperature (°C),Sample RH (%),Span deviation,Mass concentration (μg/m³),Mass concentration (μg/m³),Mass concentration (μg/m³)
DateTimeUTC,F1_M11,P_M11,Q1_M11,Q2_M11,T1_M11,T2_M11,T3_M11,T4_M11,T5_M11,U1_M11,ZSPAN_M11,X0_M11,X2_M11,X1_M11
2022-04-01 07:00:00,,0816.5,5.01,0.00,28.1,27.2,00.0,37.1,29.9,08.9,0000.0,0010.48,0003.31,0001.64
2022-04-01 07:01:00,,0816.6,4.99,0.00,28.1,27.2,00.0,37.1,29.9,08.8,0000.0,0009.75,0003.29,0001.64
2022-04-01 07:02:00,,0816.5,5.01,0.00,28.1,27.2,00.0,37.1,29.9,08.8,0000.0,0009.96,0003.30,0001.64
2022-04-01 07:03:00,,0816.5,5.00,0.00,28.1,27.2,00.0,37.1,29.9,08.9,0000.0,0009.89,0003.28,0001.64
2022-04-01 07:04:00,,0816.5,4.99,0.00,28.1,27.1,00.0,37.1,29.8,08.9,0000.0,0009.93,0003.30,0001.65
2022-04-01 07:05:00,,0816.6,5.00,0.00,28.1,27.1,00.0,37.1,29.8,08.8,0000.0,0009.78,0003.28,0001.65
2022-04-01 07:06:00,,0816.7,5.01,0.00,28.1,27.1,00.0,37.1,29.8,08.9,0000.0,0009.76,0003.25,0001.64
2022-04-01 07:07:00,,0816.6,4.99,0.00,28.1,27.1,00.0,37.1,29.8,08.9,0000.0,0009.89,0003.23,0001.62
2022-04-01 07:08:00,,0816.7,5.02,0.00,28.1,27.2,00.0,37.1,29.8,08.9,0000.0,0010.06,0003.25,0001.63
2022-04-01 07:09:00,,0816.4,4.99,0.00,28.1,27.2,00.0,37.1,29.8,08.9,0000.0,0009.76,0003.24,0001.63
2022-04-01 07:10:00,,0816.4,5.01,0.00,28.1,27.2,00.0,37.1,29.9,09.0,0000.0,0008.50,0003.22,0001.63
2022-04-01 07:11:00,,0816.6,4.99,0.00,28.1,27.2,00.0,37.1,29.9,08.9,0000.0,0008.67,0003.21,0001.64
2022-04-01 07:12:00,,0816.6,5.02,0.00,28.1,27.2,00.0,37.0,29.9,08.9,0000.0,0008.67,0003.21,0001.65
2022-04-01 07:13:00,,0816.5,4.99,0.00,28.1,27.2,00.0,37.1,29.9,09.0,0000.0,0008.36,0003.17,0001.63
2022-04-01 07:14:00,,0816.4,4.99,0.00,28.1,27.2,00.0,37.1,29.9,09.0,0000.0,0008.43,0003.19,0001.65
2022-04-01 07:15:00,,0816.4,5.02,0.00,28.1,27.2,00.0,37.1,29.9,08.9,0000.0,0008.55,0003.21,0001.66
2022-04-01 07:16:00,,0816.4,5.00,0.00,28.1,27.2,00.0,37.1,29.9,09.0,0000.0,0008.55,0003.22,0001.67
2022-04-01 07:17:00,,0816.6,4.99,0.00,28.1,27.2,00.0,37.1,29.9,09.2,0000.0,0008.53,0003.28,0001.69
2022-04-01 07:18:00,,0816.5,4.99,0.00,28.1,27.2,00.0,37.1,29.9,09.2,0000.0,0008.55,0003.32,0001.71
2022-04-01 07:19:00,,0816.5,5.01,0.00,28.1,27.2,00.0,37.1,29.9,09.1,0000.0,0008.49,0003.32,0001.71
2022-04-01 07:20:00,,0816.4,4.99,0.00,28.1,27.2,00.0,37.1,29.9,09.0,0000.0,0008.37,0003.30,0001.72
2022-04-01 07:21:00,,0816.4,5.02,0.00,28.1,27.2,00.0,37.1,29.9,09.0,0000.0,0008.49,0003.35,0001.73
2022-04-01 07:22:00,,0816.4,5.02,0.00,28.1,27.2,00.0,37.1,29.9,09.1,0000.0,0008.56,0003.36,0001.73
2022-04-01 07:23:00,,0816.5,5.00,0.00,28.1,27.2,00.0,37.1,29.9,09.4,0000.0,0008.71,0003.34,0001.71
2022-04-01 07:24:00,,0816.4,5.00,0.00,28.1,27.2,00.0,37.1,29.9,09.4,0000.0,0008.58,0003.36,0001.73
2022-04-01 07:25:00,,0816.4,5.00,0.00,28.1,27.2,00.0,37.1,29.9,09.4,0000.0,0008.60,0003.36,0001.73
2022-04-01 07:26:00,,0816.4,5.00,0.00,28.1,27.2,00.0,37.1,29.9,09.4,0000.0,0008.71,0003.34,0001.74
2022-04-01 07:27:00,,0816.4,5.01,0.00,28.1,27.2,00.0,37.1,29.9,09.3,0000.0,0009.00,0003.34,0001.75
2022-04-01 07:28:00,,0816.5,5.00,0.00,28.2,27.2,00.0,37.1,29.9,09.3,0000.0,0009.07,0003.34,0001.77
2022-04-01 07:29:00,,0816.5,4.99,0.00,28.2,27.2,00.0,37.1,29.9,09.3,0000.0,0008.84,0003.38,0001.80
2022-04-01 07:30:00,,0816.5,5.02,0.00,28.1,27.2,00.0,37.1,29.9,09.3,0000.0,0008.73,0003.39,0001.83
2022-04-01 07:31:00,,0816.4,5.00,0.00,28.2,27.2,00.0,37.1,29.9,09.3,0000.0,0009.26,0003.41,0001.86
2022-04-01 07:32:00,,0816.5,5.00,0.00,28.2,27.2,00.0,37.1,29.9,09.3,0000.0,0009.47,0003.41,0001.89
2022-04-01 07:33:00,,0816.5,5.00,0.00,28.1,27.2,00.0,37.1,29.9,09.3,0000.0,0009.27,0003.43,0001.92
2022-04-01 07:34:00,,0816.5,5.00,0.00,28.1,27.2,00.0,37.1,29.9,09.3,0000.0,0009.51,0003.49,0001.96
2022-04-01 07:35:00,,0816.5,5.00,0.00,28.1,27.2,00.0,37.1,29.9,09.3,0000.0,0009.69,0003.54,0002.00
2022-04-01 07:36:00,,0816.5,5.01,0.00,28.1,27.2,00.0,37.1,29.9,09.4,0000.0,0009.75,0003.58,0002.03
2022-04-01 07:37:00,,0816.5,4.99,0.00,28.1,27.2,00.0,37.1,29.9,09.4,0000.0,0009.77,0003.62,0002.05
2022-04-01 07:38:00,,0816.5,5.00,0.00,28.1,27.2,00.0,37.1,29.9,09.4,0000.0,0009.38,0003.63,0002.06
2022-04-01 07:39:00,,0816.4,5.01,0.00,28.1,27.2,00.0,37.1,29.9,09.5,0000.0,0009.35,0003.64,0002.06
2022-04-01 07:40:00,,0816.4,4.99,0.00,28.1,27.2,00.0,37.1,29.9,09.5,0000.0,0009.26,0003.62,0002.05
2022-04-01 07:41:00,,0816.4,5.00,0.00,28.1,27.2,00.0,37.1,29.9,09.5,0000.0,0009.26,0003.63,0002.04
2022-04-01 07:42:00,,0816.4,5.02,0.00,28.1,27.2,00.0,37.1,29.9,09.5,0000.0,0008.71,0003.61,0002.04
2022-04-01 07:43:00,,0816.6,4.99,0.00,28.1,27.2,00.0,37.1,29.9,09.5,0000.0,0008.48,0003.57,0002.03
2022-04-01 07:44:00,,0816.4,5.02,0.00,28.1,27.2,00.0,37.1,29.9,09.5,0000.0,0008.64,0003.60,0002.04
2022-04-01 07:45:00,,0816.4,5.00,0.00,28.1,27.2,00.0,37.1,29.9,09.5,0000.0,0008.71,0003.58,0002.05
2022-04-01 07:46:00,,0816.5,4.99,0.00,28.1,27.2,00.0,37.1,29.9,09.5,0000.0,0008.47,0003.56,0002.03
2022-04-01 07:47:00,,0816.5,4.99,0.00,28.1,27.2,00.0,37.1,29.9,09.5,0000.0,0008.62,0003.58,0002.00
2022-04-01 07:48:00,,0816.6,5.02,0.00,28.1,27.2,00.0,37.1,29.9,09.6,0000.0,0008.58,0003.56,0001.98
2022-04-01 07:49:00,,0816.6,4.98,0.00,28.1,27.2,00.0,37.1,29.9,09.6,0000.0,0008.66,0003.58,0001.96
2022-04-01 07:50:00,,0816.5,5.01,0.00,28.1,27.2,00.0,37.1,29.9,09.5,0000.0,0008.64,0003.55,0001.93
2022-04-01 07:51:00,,0816.5,5.00,0.00,28.1,27.2,00.0,37.1,29.9,09.6,0000.0,0008.71,0003.57,0001.93
2022-04-01 07:52:00,,0816.6,4.99,0.00,28.1,27.2,00.0,37.1,29.9,09.6,0000.0,0008.75,0003.58,0001.93
2022-04-01 07:53:00,,0816.5,5.01,0.00,28.1,27.1,00.0,37.1,29.9,09.5,0000.0,0009.08,0003.61,0001.92
2022-04-01 07:54:00,,0816.5,5.00,0.00,28.1,27.1,00.0,37.1,29.9,09.5,0000.0,0009.78,0003.65,0001.93
2022-04-01 07:55:00,,0816.5,4.99,0.00,28.1,27.1,00.0,37.1,29.8,09.5,0000.0,0009.77,0003.60,0001.92
2022-04-01 07:56:00,,0816.5,5.02,0.00,28.1,27.1,00.0,37.1,29.8,09.4,0000.0,0009.59,0003.60,0001.92
2022-04-01 07:57:00,,0816.6,4.99,0.00,28.1,27.1,00.0,37.0,29.8,09.5,0000.0,0010.17,0003.58,0001.93
2022-04-01 07:58:00,,0816.5,5.00,0.00,28.1,27.1,00.0,37.0,29.8,09.5,0000.0,0011.10,0003.55,0001.94
2022-04-01 07:59:00,,0816.4,5.00,0.00,28.1,27.1,00.0,37.0,29.8,09.5,0000.0,0011.59,0003.53,0001.96
